User: anonymous   Login
Location: ???????
(55.9142°N, 37.8256°E)
Time: 03:09:27
(UTC+00:00)
Language:

Cosmos 2112 Rocket - Orbit

View from above orbital plane
View from above orbital plane
View from above satellite
View from above satellite

Ground track
Ground track

The orbit data is extracted from the following two-line orbital elements,

1 21015U 90111B   24167.94740875  .00000386  00000-0  13988-3 0  9994
2 21015  74.0494 128.6278 0020529 123.0521 237.2608 14.36578576852763
Epoch (UTC): 15 June 2024 22:44:16
Eccentricity: 0.0020529
inclination: 74.0494°
perigee height: 755 km
apogee height: 784 km
right ascension of ascending node: 128.6278°
argument of perigee: 123.0521°
revolutions per day: 14.36578576
mean anomaly at epoch: 237.2608°
orbit number at epoch: 85276

The dashed part of the orbit path shows where the satellite is in the earth's shadow,  

DLR